Tracking 25953 objects as of 15-Aug-2022
HD Live streaming from Space Station
objects crossing your sky now

INTERCOSMOS 25

Track INTERCOSMOS 25 now!
10-day predictions
INTERCOSMOS 25 is classified as:


NORAD ID: 21819
Int'l Code: 1991-086A
Perigee: 445.6 km
Apogee: 2,877.7 km
Inclination: 82.6 °
Period: 119.4 minutes
Semi major axis: 8032 km
RCS: 7.3989 m2 (large)
Launch date: December 18, 1991
Source: Commonwealth of Independent States (former USSR) (CIS)
Launch site: PLESETSK MISSILE AND SPACE COMPLEX (PKMTR)
aabbcc
Your satellite tracking list
Your tracking list is empty




NASA's NSSDC Master Catalog

Two Line Element Set (TLE):
1 21819U 91086A   22226.87037515  .00000748  00000-0  14512-3 0  9990
2 21819  82.5943  13.6241 1513877  31.3499 336.9469 12.05904937339276
Source of the keplerian elements: AFSPC